Hourly Data Report for October 04, 2017

All times are specified in Local Standard Time (LST). Add 1 hour to adjust for Daylight Saving Time where and when it is observed.

NORMAN WELLS A
NORTHWEST TERRITORIES

65°16'53.000" N
126°47'55.000" W
72.50 m
2202801
71043
YVQ

Download Data

Hourly Data (October 2017)
Hourly Data Report for October 4, 2017
Temp Definition
°C
Dew Point Temp Definition
°C
Rel Hum Definition
%
Wind Dir Definition
10's deg

Wind Spd Definition
km/h
Visibility Definition
km
Stn Press Definition
kPa
Hmdx Definition


Wind Chill Definition


Weather Definition


TIME
00:00 Legend Double Dagger 1.0 0.7 98 9 9 48.3 100.96     LegendNANA
01:00 Legend Double Dagger 2.7 2.0 95 11 11 48.3 100.94     LegendNANA
02:00 Legend Double Dagger 2.8 1.9 94 9 6 48.3 100.95     Mostly Cloudy
03:00 Legend Double Dagger 2.8 1.9 94 12 14 48.3 100.90     LegendNANA
04:00 Legend Double Dagger 1.7 1.3 97 9 8 48.3 100.92     LegendNANA
05:00 Legend Double Dagger 1.3 0.8 97 9 8 48.3 100.88     Mainly Clear
06:00 Legend Double Dagger 1.0 0.6 97 11 11 48.3 100.85     LegendNANA
07:00 Legend Double Dagger 1.3 0.9 98 11 8 48.3 100.84     LegendNANA
08:00 Legend Double Dagger 0.4 0.3 99 9 8 48.3 100.82     Mainly Clear
09:00 Legend Double Dagger 2.1 1.1 93 11 9 48.3 100.84     LegendNANA
10:00 Legend Double Dagger 3.9 2.2 89 11 5 48.3 100.84     LegendNANA
11:00 Legend Double Dagger 5.0 2.3 83 11 9 48.3 100.81     Mostly Cloudy
12:00 Legend Double Dagger 5.8 2.6 80 12 19 48.3 100.76     LegendNANA
13:00 Legend Double Dagger 7.0 2.8 74 13 22 48.3 100.72     LegendNANA
14:00 Legend Double Dagger 7.2 2.7 73 12 22 48.3 100.69     Mostly Cloudy
15:00 Legend Double Dagger 6.6 2.9 77 12 16 48.3 100.61     LegendNANA
16:00 Legend Double Dagger 6.1 2.9 80 12 28 48.3 100.58     LegendNANA
17:00 Legend Double Dagger 5.7 2.7 81 10 16 48.3 100.50     Mostly Cloudy
18:00 Legend Double Dagger 6.3 3.3 81 13 18 48.3 100.40     LegendNANA
19:00 Legend Double Dagger 6.0 3.5 83 12 22 48.3 100.32     LegendNANA
20:00 Legend Double Dagger 6.8 3.4 79 12 23 48.3 100.21     Mostly Cloudy
21:00 Legend Double Dagger 6.6 3.0 77 12 20 48.3 100.18     LegendNANA
22:00 Legend Double Dagger 7.8 2.5 69 10 23 48.3 100.05     LegendNANA
23:00 Legend Double Dagger 7.3 2.8 73 12 30 48.3 99.96     Mostly Cloudy

Notes on Data Quality.

Legend

  • E = Estimated
  • M = Missing
  • NA = Not Available
  • ‡ = Partner data that is not subject to review by the National Climate Archives
Date modified: